Regional Weather Roundup
Issued by NWS

Home | Current Version | Previous Version | Text Only | Print | Product List | Glossary On
Versions: 1 2 3 4 5 6 7 8 9 10 11 12 13 14 15 16 17 18 19 20 21 22 23 24 25 26 27 28 29 30 31 32 33 34 35 36 37 38 39 40 41 42 43 44 45 46 47 48 49 50
057
ASUS43 KDMX 050308
RWRIA

WEATHER ROUNDUP FOR IOWA
NATIONAL WEATHER SERVICE DES MOINES IA
1000 PM CDT WED MAY 04 2016

NOTE: "FAIR" INDICATES FEW OR NO CLOUDS BELOW 12,000 FEET WITH NO
SIGNIFICANT WEATHER AND/OR OBSTRUCTIONS TO VISIBILITY.

* - THESE STATIONS ARE NOT NWS STATIONS...THUS NOT UNDER NWS
QUALITY CONTROL.  THEY ALSO DO NOT REPORT WEATHER SUCH
AS PRECIPITATION OR FOG.

IAZ001>003-012>014-020>022-031>034-043>046-050400-
   NORTHWEST IOWA

CITY           SKY/WX    TMP DP  RH WIND       PRES   REMARKS
CARROLL *      CLEAR     52  41  66 NW8       29.98R
CHEROKEE *     CLEAR     52  39  62 CALM      30.00R
DENISON *      CLEAR     55  39  54 N9        29.98R
LE MARS *      CLEAR     55  39  54 N5        30.02R
ORANGE CITY *  CLEAR     61  34  36 N5        30.01R
SHELDON *      CLEAR     50  36  57 N5        29.99S
SIOUX CITY     CLEAR     53  40  61 W7        30.01R
SPENCER        CLEAR     51  38  60 NW9       30.00R
STORM LAKE *   CLEAR     54  37  54 N9        30.00R
$$

IAZ055>058-069>071-079>083-090>094-050400-
   SOUTHWEST IOWA

CITY           SKY/WX    TMP DP  RH WIND       PRES   REMARKS
ATLANTIC *     CLEAR     55  37  50 NW8       29.99R
AUDUBON *      CLEAR     50  39  66 CALM      30.01R
CLARINDA *       N/A     52  45  76 MISG      30.01R
COUNCIL BLFS * CLEAR     57  41  54 NW7       30.01R
CRESTON *      CLEAR     54  39  58 NW6       30.00R
HARLAN  *      CLEAR     54  41  62 NW10      30.03R
LAMONI         CLEAR     52  38  58 NW7       29.97R
RED OAK *      CLEAR     55  41  58 NW7       30.00R
SHENANDOAH *   CLEAR     61  39  44 N7        30.01R
$$

IAZ047>049-059>061-072>074-084-050400-
   CENTRAL IOWA

CITY           SKY/WX    TMP DP  RH WIND       PRES   REMARKS
AMES           CLEAR     53  36  52 N5        29.96R
ANKENY *       CLEAR     59  36  41 NW8       29.95R
BOONE *        CLEAR     57  36  44 NW7       29.95R
CHARITON *     CLEAR     54  37  54 W8        29.95R
DES MOINES     CLEAR     58  34  40 NW6       29.96R
GRINNELL*      CLEAR     52  34  50 NW5       29.94R
KNOXVILLE *    CLEAR     57  34  41 N5        29.94R
MARSHALLTOWN   CLEAR     55  31  39 N9        29.94R
NEWTON *       CLEAR     55  34  44 N7        29.94R
PELLA *        CLEAR     52  34  50 NW6       29.95R
PERRY *          N/A     55  39  54 NW7       29.97R
$$

IAZ004>006-015-016-023>025-035-036-050400-
   NORTH CENTRAL IOWA

CITY           SKY/WX    TMP DP  RH WIND       PRES   REMARKS
ALGONA *       CLEAR     55  34  44 N6        29.98R
CLARION *      CLEAR     50  30  46 N8        29.97R
ESTHERVILLE    CLEAR     52  37  56 NW9       29.98R
FORT DODGE *   CLEAR     55  34  44 N3        29.98R
MASON CITY     CLEAR     48  30  49 N7        29.98R
FOREST CITY *  CLEAR     50  28  43 N6        29.98R
WEBSTER CITY * CLEAR     52  34  50 N6        29.95R
IOWA FALLS *     N/A     57  30  35 N7        29.97R
$$

IAZ007>011-017>019-026>030-037>042-050>054-066-050400-
   NORTHEAST IOWA

CITY           SKY/WX    TMP DP  RH WIND       PRES   REMARKS
CEDAR RAPIDS   CLEAR     51  35  54 N7        29.91R
CHARLES CITY * CLEAR     52  27  37 N8        29.96R
CLINTON *      CLEAR     46  37  71 N8        29.90R
DECORAH *      CLEAR     54  27  35 N7        29.94R
DUBUQUE        CLEAR     50  31  48 N10       29.91R
MONTICELLO *   CLEAR     48  37  66 NW5       29.92R
OELWEIN *      CLEAR     52  32  46 N7        29.95R
WATERLOO       PTCLDY    49  31  49 N7        29.94R
$$

IAZ064-065-067-068-078-050400-
   EAST CENTRAL IOWA

CITY           SKY/WX    TMP DP  RH WIND       PRES   REMARKS
DAVENPORT      PTCLDY    49  36  61 NW7       29.91R
IOWA CITY      CLEAR     56  33  42 N5        29.93R
MT. PLEASANT * CLEAR     55  37  50 N6        29.92R
MUSCATINE *    CLEAR     52  34  50 N7        29.91R
QUAD CITIES    CLEAR     56  32  40 NW8       29.88R
$$

IAZ062-063-075>077-085>089-095>099-050400-
   SOUTHEAST IOWA

CITY           SKY/WX    TMP DP  RH WIND       PRES   REMARKS
BURLINGTON     CLEAR     54  34  46 N6        29.90R
FAIRFIELD *    CLEAR     52  34  50 NW7       29.92R
FORT MADISON * CLEAR     54  36  50 N3        29.92R
KEOKUK *       CLEAR     55  36  47 CALM      29.91R
OSKALOOSA *      N/A     54  34  47 N7        29.93R
OTTUMWA        PTCLDY    49  34  56 NW7       29.93R
WASHINGTON *   CLEAR     54  34  47 N7        29.93R
$$

ABBREVIATIONS USED IN REMARKS
   TC - TEMPERATURES IN CELSIUS
  WCI - WIND CHILL INDEX
   HX - HEAT INDEX
  VSB - VISIBILITY
$$





USA.gov is the U.S. government's official web portal to all federal, state and local government web resources and services.